Regional Weather Roundup
Issued by NWS

Home | Current Version | Previous Version | Text Only | Print | Product List | Glossary On
Versions: 1 2 3 4 5 6 7 8 9 10 11 12 13 14 15 16 17 18 19 20 21 22 23 24 25 26 27 28 29 30 31 32 33 34 35 36 37 38 39 40 41 42 43 44 45 46 47 48 49 50
000
ASCA44 KEWX 101520
RWRMX

LATIN AMERICA AND CARIBBEAN REGIONAL WEATHER ROUNDUP
NATIONAL WEATHER SERVICE AUSTIN/SAN ANTONIO TX
900 AM CST SAT DEC 10 2016

NOTE: "FAIR" INDICATED FEW OR NO CLOUDS BELOW 12,000 FEET WITH NO
SIGNIFICANT WEATHER AND/OR OBSTRUCTIONS TO VISIBILITY.

BAJA CALIFORNIA

CITY           SKY/WX    TMP DP  RH WIND       PRES   REMARKS
LORETO         MOSUNNY   68  48  49 NW7       30.06R
LA PAZ         SUNNY     52  48  87 CALM      30.09R
MEXICALI       CLEAR     48  28  46 W9        30.13R WCI  44
S.J. DEL CABO  SUNNY     70  46  43 W8        30.09R
TIJUANA        CLOUDY    54  50  87 CALM      30.18F FOG

NORTHWESTERN MEXICO

CITY           SKY/WX    TMP DP  RH WIND       PRES   REMARKS
CULIACAN       SUNNY     63  52  67 CALM      30.03R
DURANGO        SUNNY     37  37 100 CALM      30.44R FOG
GUAYMAS        CLEAR     63  50  63 CALM      30.01S
HERMOSILLO     PTCLDY    57  41  54 CALM      30.09R
CD. JUAREZ     SUNNY     36  32  87 CALM      30.22R
LOS MOCHIS     MOSUNNY   55  54  94 NW5       30.06R
OBREGON        MOSUNNY   50  43  76 W2        30.04R

NORTHEASTERN MEXICO

CITY           SKY/WX    TMP DP  RH WIND       PRES   REMARKS
CHIHUAHUA      FOG       34  34 100 CALM      30.32R VSB 1
MATAMOROS      CLOUDY    48  37  66 NW13      30.38R WCI  43
MONCLOVA       CLOUDY    45  39  81 CALM      30.38S FOG
MONTERREY      DRZL/FOG  45  43  93 NW3       30.40R VSB 1
NUEVO LAREDO   CLOUDY    45  36  70 CALM      30.43R
PIEDRAS NEGRAS CLOUDY    45  32  61 SE6       30.43S WCI  41
REYNOSA        CLOUDY    46  36  66 W7        30.41R WCI  43
SALTILLO       SUNNY     41  41 100 CALM      30.40R
TORREON        SUNNY     48  41  76 CALM      30.35R
CD. VICTORIA   CLOUDY    48  48 100 NW3       30.40R

WESTERN MEXICO

CITY           SKY/WX    TMP DP  RH WIND       PRES   REMARKS
AGUASCALIENTES SUNNY     50  45  81 N8        30.48R WCI  47
COLIMA         MOSUNNY   72  59  64 N17       30.13R
DEL BAJIO      MOSUNNY   59  48  67 NE6       30.50R
GUADALAJARA    MOSUNNY   57  46  67 E8        30.40R
MANZANILLO     PTSUNNY   77  72  83 CALM      29.96R
MAZATLAN       SUNNY     55  54  94 E5        30.02R
P. VALLARTA    MOSUNNY   70  64  83 NE3       29.99R
URUAPAN        PTSUNNY   63  55  77 CALM      30.31R
ZACATECAS      MOSUNNY   43  37  81 CALM      30.47R

CENTRAL MEXICO

CITY           SKY/WX    TMP DP  RH WIND       PRES   REMARKS
CUERNAVACA     MOSUNNY   68  50  52 CALM      30.30R
MEXICO CITY    MOSUNNY   55  45  67 NE5       30.51R
MORELIA        MOSUNNY   54  46  76 CALM      30.43R
POZA RICA      FOG       59  59 100 NW6       30.40R VSB 1
PUEBLA         MOSUNNY   59  46  63 NW14      30.47R
QUERETARO      PTSUNNY   55  48  76 E12       30.51R
S. LUIS POTOSI CLOUDY    50  46  87 CALM      30.47R
TAMPICO        CLOUDY    57  57 100 W7        30.35R FOG
TOLUCA         MOSUNNY   46  45  93 W3        30.55R HAZE

SOUTHERN MEXICO

CITY           SKY/WX    TMP DP  RH WIND       PRES   REMARKS
ACAPULCO       MOSUNNY   79  73  83 N6        29.99R
B. DE HUATULCO MOSUNNY   81  64  57 CALM      30.05R
OAXACA         MOSUNNY   61  52  72 CALM      30.38R
P. ESCONDIDO   SUNNY     79  70  73 CALM      30.09R
VERACRUZ       LGT RAIN  68  66  94 CALM      30.23R FOG
ZIHUATANEJO    MOSUNNY   77  72  83 CALM      30.00R

YUCATAN PENINSULA

CITY           SKY/WX    TMP DP  RH WIND       PRES   REMARKS
CAMPECHE       MOSUNNY   79  72  78 E14       30.12R
CANCUN         MOSUNNY   81  73  78 NE7       30.16S
CHETUMAL       MOSUNNY   75  72  88 N7        30.14R
CD. DEL CARMEN CLOUDY    73  70  88 SW7       30.15R
COZUMEL        LGT RAIN  73  70  88 SE9       30.14R
MERIDA         PTSUNNY   77  70  78 NE12      30.18R
MINATITLAN     PTSUNNY   70  64  83 CALM      30.14R
TAPACHULA      SUNNY     84  70  61 CALM      29.96R
TUX. GUTIERREZ MOSUNNY   70  61  73 NW6       30.20S
VILLAHERMOSA   CLOUDY    70  68  94 CALM      30.19R

CENTRAL AMERICA

CITY           SKY/WX    TMP DP  RH WIND       PRES   REMARKS
BELIZE CITY    MOSUNNY   79  73  83 NW7       30.15R
MANAGUA        MOSUNNY   84  68  58 E9        29.92S

CARIBBEAN

CITY           SKY/WX    TMP DP  RH WIND       PRES   REMARKS
ARUBA          SHOWER    81  77  89 E21G37    29.94F
CURACAO        MOSUNNY   86  77  74 E17       29.97F HX  97
KINGSTON       MOSUNNY   84  72  65 W5        30.03S
NASSAU         MOSUNNY   81  68  65 NE8       30.22S
SAN JUAN       PTSUNNY   84  75  74 E10       30.10F HX  92
SANTO DOMINGO  MOSUNNY   82  75  78 NE9       30.06F
ST. CROIX      MOSUNNY   86  73  66 E15G21    30.10S HX  93
ST. KITTS      MOSUNNY   86  73  66 E12       30.09  HX  93
ST. MAARTEN    MOSUNNY   84  73  70 E12       30.09S HX  91
ST. THOMAS     MOSUNNY   84  75  74 SE12      30.09F HX  92

$$





USA.gov is the U.S. government's official web portal to all federal, state and local government web resources and services.